Time,TemperatureF,DewpointF,PressureIn,WindDirection,WindDirectionDegrees,WindSpeedMPH,WindSpeedGustMPH,Humidity,HourlyPrecipIn,Conditions,Clouds,dailyrainin,SolarRadiationWatts/m^2,SoftwareType,DateUTC
2013-03-07 00:14:00,57.3,49.0,30.12,NW,321,5.0,-999.0,74,-99.99,,,0.00,0,weatherlink.com 1.10,2013-03-07 05:14:00,
2013-03-07 00:29:00,56.9,49.0,30.13,NNW,333,4.0,-999.0,75,-99.99,,,0.00,0,weatherlink.com 1.10,2013-03-07 05:29:00,
2013-03-07 00:44:00,56.8,49.0,30.13,North,351,10.0,-999.0,76,-99.99,,,0.00,0,weatherlink.com 1.10,2013-03-07 05:44:00,
2013-03-07 00:59:00,56.7,49.0,30.13,WNW,302,14.0,-999.0,76,-99.99,,,0.00,0,weatherlink.com 1.10,2013-03-07 05:59:00,
2013-03-07 01:14:00,56.6,49.0,30.12,NW,319,12.0,-999.0,75,-99.99,,,0.00,0,weatherlink.com 1.10,2013-03-07 06:14:00,
2013-03-07 01:29:00,56.6,48.0,30.12,NW,316,6.0,-999.0,74,-99.99,,,0.00,0,weatherlink.com 1.10,2013-03-07 06:29:00,
2013-03-07 01:44:00,56.2,47.0,30.12,NNW,339,2.0,-999.0,72,-99.99,,,0.00,0,weatherlink.com 1.10,2013-03-07 06:44:00,
2013-03-07 01:59:00,55.5,47.0,30.12,NNW,348,10.0,-999.0,72,-99.99,,,0.00,0,weatherlink.com 1.10,2013-03-07 06:59:00,
2013-03-07 02:14:00,55.2,47.0,30.12,NW,305,5.0,-999.0,74,-99.99,,,0.00,0,weatherlink.com 1.10,2013-03-07 07:14:00,
2013-03-07 02:29:00,55.0,47.0,30.11,NW,326,10.0,-999.0,75,-99.99,,,0.00,0,weatherlink.com 1.10,2013-03-07 07:29:00,
2013-03-07 02:44:00,54.9,47.0,30.11,North,360,12.0,-999.0,75,-99.99,,,0.00,0,weatherlink.com 1.10,2013-03-07 07:44:00,
2013-03-07 02:59:00,54.7,46.0,30.11,NNW,344,14.0,-999.0,73,-99.99,,,0.00,0,weatherlink.com 1.10,2013-03-07 07:59:00,
2013-03-07 03:14:00,54.6,45.0,30.10,WNW,298,15.0,-999.0,71,-99.99,,,0.00,0,weatherlink.com 1.10,2013-03-07 08:14:00,
2013-03-07 03:29:00,54.7,45.0,30.10,NW,325,9.0,-999.0,69,-99.99,,,0.00,0,weatherlink.com 1.10,2013-03-07 08:29:00,
2013-03-07 03:44:00,54.6,45.0,30.10,NW,305,7.0,-999.0,69,-99.99,,,0.00,0,weatherlink.com 1.10,2013-03-07 08:44:00,
2013-03-07 03:59:00,54.2,43.0,30.11,NW,314,8.0,-999.0,67,-99.99,,,0.00,0,weatherlink.com 1.10,2013-03-07 08:59:00,
2013-03-07 04:14:00,53.7,44.0,30.11,North,355,12.0,-999.0,70,-99.99,,,0.00,0,weatherlink.com 1.10,2013-03-07 09:14:00,
2013-03-07 04:29:00,53.2,44.0,30.11,NNW,338,4.0,-999.0,70,-99.99,,,0.00,0,weatherlink.com 1.10,2013-03-07 09:29:00,
2013-03-07 04:45:00,52.9,44.0,30.12,NNW,328,7.0,-999.0,72,-99.99,,,0.00,0,weatherlink.com 1.10,2013-03-07 09:45:00,
2013-03-07 05:00:00,52.6,43.0,30.12,NW,318,10.0,-999.0,71,-99.99,,,0.00,0,weatherlink.com 1.10,2013-03-07 10:00:00,
2013-03-07 05:15:00,52.4,44.0,30.11,NNW,334,12.0,-999.0,73,-99.99,,,0.00,0,weatherlink.com 1.10,2013-03-07 10:15:00,
2013-03-07 05:30:00,52.3,44.0,30.12,NW,318,4.0,-999.0,74,-99.99,,,0.00,0,weatherlink.com 1.10,2013-03-07 10:30:00,
2013-03-07 05:45:00,52.1,44.0,30.12,NW,319,2.0,-999.0,75,-99.99,,,0.00,0,weatherlink.com 1.10,2013-03-07 10:45:00,
2013-03-07 06:00:00,52.0,44.0,30.13,NNW,330,9.0,-999.0,75,-99.99,,,0.00,0,weatherlink.com 1.10,2013-03-07 11:00:00,
2013-03-07 06:15:00,51.7,44.0,30.14,North,355,4.0,-999.0,75,-99.99,,,0.00,0,weatherlink.com 1.10,2013-03-07 11:15:00,
2013-03-07 06:30:00,51.5,44.0,30.14,North,350,12.0,-999.0,75,-99.99,,,0.00,0,weatherlink.com 1.10,2013-03-07 11:30:00,
2013-03-07 06:45:00,51.5,43.0,30.15,North,355,10.0,-999.0,74,-99.99,,,0.00,9,weatherlink.com 1.10,2013-03-07 11:45:00,
2013-03-07 07:00:00,51.6,43.0,30.15,NNW,341,12.0,-999.0,73,-99.99,,,0.00,18,weatherlink.com 1.10,2013-03-07 12:00:00,
2013-03-07 07:15:00,52.0,43.0,30.16,NNW,347,17.0,-999.0,71,-99.99,,,0.00,25,weatherlink.com 1.10,2013-03-07 12:15:00,
2013-03-07 07:30:00,52.3,42.0,30.17,North,349,8.0,-999.0,68,-99.99,,,0.00,30,weatherlink.com 1.10,2013-03-07 12:30:00,
2013-03-07 07:45:00,52.8,42.0,30.18,NNE,16,6.0,-999.0,68,-99.99,,,0.00,33,weatherlink.com 1.10,2013-03-07 12:45:00,
2013-03-07 08:00:00,53.2,42.0,30.19,NNW,341,10.0,-999.0,66,-99.99,,,0.00,37,weatherlink.com 1.10,2013-03-07 13:00:00,
2013-03-07 08:15:00,53.5,43.0,30.18,NNW,336,10.0,-999.0,67,-99.99,,,0.00,39,weatherlink.com 1.10,2013-03-07 13:15:00,
2013-03-07 08:30:00,54.1,42.0,30.18,NNW,340,5.0,-999.0,65,-99.99,,,0.00,40,weatherlink.com 1.10,2013-03-07 13:30:00,
2013-03-07 08:45:00,54.6,43.0,30.18,NNW,340,6.0,-999.0,65,-99.99,,,0.00,42,weatherlink.com 1.10,2013-03-07 13:45:00,
2013-03-07 09:00:00,55.1,43.0,30.18,North,5,5.0,-999.0,64,-99.99,,,0.00,44,weatherlink.com 1.10,2013-03-07 14:00:00,
2013-03-07 09:15:00,55.8,43.0,30.18,NNW,336,9.0,-999.0,62,-99.99,,,0.00,47,weatherlink.com 1.10,2013-03-07 14:15:00,
2013-03-07 09:30:00,56.9,44.0,30.19,NNW,344,7.0,-999.0,62,-99.99,,,0.00,49,weatherlink.com 1.10,2013-03-07 14:30:00,
2013-03-07 09:45:00,57.7,45.0,30.19,NNW,336,7.0,-999.0,63,-99.99,,,0.00,287,weatherlink.com 1.10,2013-03-07 14:45:00,
2013-03-07 10:00:00,58.6,45.0,30.19,NNW,344,6.0,-999.0,60,-99.99,,,0.00,679,weatherlink.com 1.10,2013-03-07 15:00:00,
2013-03-07 10:15:00,59.5,45.0,30.19,North,350,4.0,-999.0,59,-99.99,,,0.00,722,weatherlink.com 1.10,2013-03-07 15:15:00,
2013-03-07 10:30:00,60.5,45.0,30.19,North,11,4.0,-999.0,57,-99.99,,,0.00,765,weatherlink.com 1.10,2013-03-07 15:30:00,
2013-03-07 10:45:00,61.2,44.0,30.19,NNW,340,5.0,-999.0,54,-99.99,,,0.00,795,weatherlink.com 1.10,2013-03-07 15:45:00,
2013-03-07 11:01:00,62.2,44.0,30.19,North,355,5.0,-999.0,51,-99.99,,,0.00,826,weatherlink.com 1.10,2013-03-07 16:01:00,
2013-03-07 11:16:00,62.2,44.0,30.20,NW,306,4.0,-999.0,51,-99.99,,,0.00,854,weatherlink.com 1.10,2013-03-07 16:16:00,
2013-03-07 11:31:00,62.5,43.0,30.20,NW,311,6.0,-999.0,49,-99.99,,,0.00,879,weatherlink.com 1.10,2013-03-07 16:31:00,
2013-03-07 11:46:00,62.9,44.0,30.19,NW,311,5.0,-999.0,50,-99.99,,,0.00,896,weatherlink.com 1.10,2013-03-07 16:46:00,
2013-03-07 12:01:00,63.5,44.0,30.19,NW,304,4.0,-999.0,49,-99.99,,,0.00,914,weatherlink.com 1.10,2013-03-07 17:01:00,
2013-03-07 12:16:00,64.4,45.0,30.19,NW,309,6.0,-999.0,49,-99.99,,,0.00,918,weatherlink.com 1.10,2013-03-07 17:16:00,
2013-03-07 12:31:00,64.8,44.0,30.18,WNW,286,2.0,-999.0,47,-99.99,,,0.00,925,weatherlink.com 1.10,2013-03-07 17:31:00,
2013-03-07 12:46:00,64.8,44.0,30.17,WNW,302,7.0,-999.0,47,-99.99,,,0.00,923,weatherlink.com 1.10,2013-03-07 17:46:00,
2013-03-07 13:01:00,65.1,45.0,30.16,NW,306,6.0,-999.0,48,-99.99,,,0.00,925,weatherlink.com 1.10,2013-03-07 18:01:00,
2013-03-07 13:16:00,66.0,43.0,30.15,WNW,296,7.0,-999.0,44,-99.99,,,0.00,918,weatherlink.com 1.10,2013-03-07 18:16:00,
2013-03-07 13:31:00,66.5,43.0,30.14,NW,320,4.0,-999.0,43,-99.99,,,0.00,902,weatherlink.com 1.10,2013-03-07 18:31:00,
2013-03-07 13:46:00,66.8,43.0,30.14,West,267,4.0,-999.0,43,-99.99,,,0.00,870,weatherlink.com 1.10,2013-03-07 18:46:00,
2013-03-07 14:01:00,67.5,42.0,30.13,WNW,301,2.0,-999.0,40,-99.99,,,0.00,837,weatherlink.com 1.10,2013-03-07 19:01:00,
2013-03-07 14:16:00,66.2,43.0,30.13,West,278,5.0,-999.0,44,-99.99,,,0.00,782,weatherlink.com 1.10,2013-03-07 19:16:00,
2013-03-07 14:31:00,66.4,46.0,30.13,West,265,4.0,-999.0,48,-99.99,,,0.00,710,weatherlink.com 1.10,2013-03-07 19:31:00,
2013-03-07 14:46:00,66.9,44.0,30.13,West,271,5.0,-999.0,43,-99.99,,,0.00,619,weatherlink.com 1.10,2013-03-07 19:46:00,
2013-03-07 15:01:00,67.1,42.0,30.12,West,271,6.0,-999.0,41,-99.99,,,0.00,506,weatherlink.com 1.10,2013-03-07 20:01:00,
2013-03-07 15:16:00,66.4,45.0,30.12,West,271,6.0,-999.0,47,-99.99,,,0.00,388,weatherlink.com 1.10,2013-03-07 20:16:00,
2013-03-07 15:31:00,66.4,45.0,30.12,West,274,5.0,-999.0,46,-99.99,,,0.00,246,weatherlink.com 1.10,2013-03-07 20:31:00,
2013-03-07 16:16:00,64.9,50.0,30.13,WSW,250,5.0,-999.0,58,-99.99,,,0.00,77,weatherlink.com 1.10,2013-03-07 21:16:00,
2013-03-07 16:31:00,64.7,49.0,30.13,WNW,292,5.0,-999.0,58,-99.99,,,0.00,77,weatherlink.com 1.10,2013-03-07 21:31:00,
2013-03-07 16:46:00,64.2,51.0,30.13,West,271,9.0,-999.0,63,-99.99,,,0.00,86,weatherlink.com 1.10,2013-03-07 21:46:00,
2013-03-07 17:01:00,64.1,51.0,30.14,West,266,7.0,-999.0,62,-99.99,,,0.00,274,weatherlink.com 1.10,2013-03-07 22:01:00,
2013-03-07 17:16:00,63.8,51.0,30.14,West,268,7.0,-999.0,64,-99.99,,,0.00,250,weatherlink.com 1.10,2013-03-07 22:16:00,
2013-03-07 17:31:00,63.5,51.0,30.14,WNW,290,9.0,-999.0,64,-99.99,,,0.00,178,weatherlink.com 1.10,2013-03-07 22:31:00,
2013-03-07 17:46:00,63.1,51.0,30.14,West,267,10.0,-999.0,66,-99.99,,,0.00,113,weatherlink.com 1.10,2013-03-07 22:46:00,
2013-03-07 18:01:00,62.7,52.0,30.15,WNW,282,2.0,-999.0,68,-99.99,,,0.00,56,weatherlink.com 1.10,2013-03-07 23:01:00,
2013-03-07 18:16:00,62.3,52.0,30.15,West,260,5.0,-999.0,70,-99.99,,,0.00,14,weatherlink.com 1.10,2013-03-07 23:16:00,
2013-03-07 18:31:00,61.8,52.0,30.15,West,262,3.0,-999.0,70,-99.99,,,0.00,0,weatherlink.com 1.10,2013-03-07 23:31:00,
2013-03-07 18:47:00,61.7,53.0,30.15,WSW,257,3.0,-999.0,72,-99.99,,,0.00,0,weatherlink.com 1.10,2013-03-07 23:47:00,
2013-03-07 19:01:00,61.8,53.0,30.15,WSW,253,3.0,-999.0,72,-99.99,,,0.00,0,weatherlink.com 1.10,2013-03-08 00:01:00,
2013-03-07 19:16:00,61.6,53.0,30.16,WSW,252,1.0,-999.0,74,-99.99,,,0.00,0,weatherlink.com 1.10,2013-03-08 00:16:00,
2013-03-07 19:31:00,61.8,52.0,30.17,WNW,286,7.0,-999.0,71,-99.99,,,0.00,0,weatherlink.com 1.10,2013-03-08 00:31:00,
2013-03-07 19:46:00,61.6,52.0,30.17,WNW,284,5.0,-999.0,72,-99.99,,,0.00,0,weatherlink.com 1.10,2013-03-08 00:46:00,
2013-03-07 20:01:00,61.3,53.0,30.17,WNW,301,6.0,-999.0,74,-99.99,,,0.00,0,weatherlink.com 1.10,2013-03-08 01:01:00,
2013-03-07 20:16:00,60.9,53.0,30.18,WNW,286,4.0,-999.0,75,-99.99,,,0.00,0,weatherlink.com 1.10,2013-03-08 01:16:00,
2013-03-07 20:31:00,60.7,53.0,30.18,WNW,283,6.0,-999.0,76,-99.99,,,0.00,0,weatherlink.com 1.10,2013-03-08 01:31:00,
2013-03-07 20:46:00,60.2,52.0,30.19,West,281,6.0,-999.0,74,-99.99,,,0.00,0,weatherlink.com 1.10,2013-03-08 01:46:00,
2013-03-07 21:01:00,59.9,52.0,30.18,WNW,296,7.0,-999.0,74,-99.99,,,0.00,0,weatherlink.com 1.10,2013-03-08 02:01:00,
2013-03-07 21:16:00,59.7,52.0,30.19,WNW,292,6.0,-999.0,75,-99.99,,,0.00,0,weatherlink.com 1.10,2013-03-08 02:16:00,
2013-03-07 21:31:00,59.7,52.0,30.19,WNW,299,9.0,-999.0,76,-99.99,,,0.00,0,weatherlink.com 1.10,2013-03-08 02:31:00,
2013-03-07 21:46:00,59.7,52.0,30.19,WNW,302,4.0,-999.0,77,-99.99,,,0.00,0,weatherlink.com 1.10,2013-03-08 02:46:00,
2013-03-07 22:01:00,59.6,52.0,30.19,WNW,296,6.0,-999.0,77,-99.99,,,0.00,0,weatherlink.com 1.10,2013-03-08 03:01:00,
2013-03-07 22:16:00,59.6,53.0,30.19,NW,308,5.0,-999.0,78,-99.99,,,0.00,0,weatherlink.com 1.10,2013-03-08 03:16:00,
2013-03-07 22:31:00,59.6,53.0,30.19,West,271,4.0,-999.0,78,-99.99,,,0.00,0,weatherlink.com 1.10,2013-03-08 03:31:00,
2013-03-07 22:46:00,59.5,53.0,30.19,WNW,293,8.0,-999.0,78,-99.99,,,0.00,0,weatherlink.com 1.10,2013-03-08 03:46:00,
2013-03-07 23:01:00,59.5,53.0,30.19,WNW,298,6.0,-999.0,78,-99.99,,,0.00,0,weatherlink.com 1.10,2013-03-08 04:01:00,
2013-03-07 23:16:00,59.6,53.0,30.19,NW,323,5.0,-999.0,78,-99.99,,,0.00,0,weatherlink.com 1.10,2013-03-08 04:16:00,
2013-03-07 23:31:00,59.5,53.0,30.18,NW,323,4.0,-999.0,79,-99.99,,,0.00,0,weatherlink.com 1.10,2013-03-08 04:31:00,
2013-03-07 23:46:00,59.1,53.0,30.18,NW,306,9.0,-999.0,79,-99.99,,,0.00,0,weatherlink.com 1.10,2013-03-08 04:46:00,